Orbital Elements at Epoch 2459200.5 (2020-Dec-17.0) TDB
Reference: JPL 34 (heliocentric ecliptic J2000)
Element | Value | Uncertainty (1-sigma) | Units |
e | .2007431702301503 | 3.2101e-08 | |
a | 2.570590807915679 | 1.0541e-08 | au |
q | 2.054562259770202 | 8.7676e-08 | au |
i | 8.204814800503827 | 8.9431e-07 | deg |
node | 144.8917050347944 | 8.3417e-06 | deg |
peri | 226.3653421912863 | 8.5559e-06 | deg |
M | 329.2985123468308 | 1.0394e-05 | deg |
tp | 2459328.882187503127 (2021-Apr-24.38218750) | 4.4023e-05 | TDB |
period | 1505.385928631209 4.12 | 9.2599e-06 2.535e-08 | d yr |
n | .2391413345595268 | 1.471e-09 | deg/d |
Q | 3.086619356061156 | 1.2658e-08 | au |
|
| | Orbit Determination Parameters
Additional Information
|